Wetterdaten: aktuell Mittwoch, 13.06.2018 21:55
Datum Zeit Temp. I. Temp. A. Feuchte I. Feuchte A. Luftdruck Regen Wind Richtung Richtung Sonnenschein Taupunkt Windchill Windben
13.06.2018 21:55 22,7 C 14,6 C 51 % 59 % 1019,9 hPa 0,0 l/m 3,1 km/h W 270 0 min 6,7 C 14,6 C 3,5 km/h
13.06.2018 21:50 22,7 C 14,6 C 51 % 59 % 1019,9 hPa 0,0 l/m 3,1 km/h W-SW 247 0 min 6,7 C 14,6 C 6,1 km/h
13.06.2018 21:45 22,6 C 14,6 C 51 % 59 % 1019,9 hPa 0,0 l/m 2,7 km/h W 270 0 min 6,7 C 14,6 C 4,0 km/h
13.06.2018 21:40 22,7 C 14,6 C 51 % 59 % 1019,4 hPa 0,0 l/m 3,4 km/h W 270 0 min 6,7 C 14,6 C 4,0 km/h
13.06.2018 21:36 22,6 C 14,6 C 51 % 59 % 1019,4 hPa 0,0 l/m 5,0 km/h N-NW 337 0 min 6,7 C 14,6 C 3,5 km/h
13.06.2018 21:35 22,6 C 14,6 C 51 % 59 % 1019,4 hPa 0,0 l/m 5,0 km/h N-NW 337 0 min 6,7 C 14,6 C 3,5 km/h
13.06.2018 21:30 22,6 C 14,6 C 51 % 58 % 1019,4 hPa 0,0 l/m 5,5 km/h S 180 0 min 6,4 C 14,6 C 4,8 km/h
13.06.2018 21:25 22,6 C 14,8 C 51 % 59 % 1019,4 hPa 0,0 l/m 4,8 km/h W 270 0 min 6,9 C 14,8 C 8,2 km/h
13.06.2018 21:20 22,6 C 14,9 C 51 % 59 % 1019,2 hPa 0,0 l/m 3,1 km/h W-SW 247 0 min 7,0 C 14,9 C 6,4 km/h
13.06.2018 21:15 22,6 C 15,0 C 51 % 59 % 1019,2 hPa 0,0 l/m 1,9 km/h W-SW 247 0 min 7,1 C 15,0 C 2,1 km/h
13.06.2018 21:10 22,6 C 15,1 C 51 % 59 % 1019,2 hPa 0,0 l/m 1,4 km/h W-SW 247 0 min 7,1 C 15,1 C 2,9 km/h
13.06.2018 21:07 22,5 C 15,2 C 51 % 59 % 1019,2 hPa 0,0 l/m 1,3 km/h N 0 0 min 7,2 C 15,2 C 3,5 km/h
13.06.2018 21:00 22,5 C 15,2 C 51 % 59 % 1019,2 hPa 0,0 l/m 2,1 km/h N-NW 337 0 min 7,2 C 15,2 C 2,9 km/h
13.06.2018 20:55 22,5 C 15,3 C 51 % 59 % 1019,2 hPa 0,0 l/m 2,4 km/h N 360 0 min 7,3 C 15,3 C 4,7 km/h
13.06.2018 20:50 22,5 C 15,3 C 51 % 59 % 1019,2 hPa 0,0 l/m 2,1 km/h N-NO 22 0 min 7,3 C 15,3 C 4,2 km/h
13.06.2018 20:45 22,5 C 15,4 C 51 % 59 % 1019,2 hPa 0,0 l/m 1,8 km/h NW 315 0 min 7,4 C 15,4 C 2,7 km/h
13.06.2018 20:40 22,5 C 15,3 C 51 % 59 % 1019,1 hPa 0,0 l/m 2,3 km/h N-NO 22 0 min 7,3 C 15,3 C 0,0 km/h
13.06.2018 20:35 22,5 C 15,5 C 51 % 59 % 1019,1 hPa 0,0 l/m 1,6 km/h W-NW 292 0 min 7,5 C 15,5 C 5,5 km/h
13.06.2018 20:30 22,5 C 15,5 C 51 % 59 % 1019,1 hPa 0,0 l/m 1,4 km/h NW 315 0 min 7,5 C 15,5 C 0,0 km/h
13.06.2018 20:25 22,5 C 15,5 C 51 % 59 % 1019,1 hPa 0,0 l/m 2,6 km/h W-SW 247 0 min 7,5 C 15,5 C 0,0 km/h
13.06.2018 20:20 22,5 C 15,5 C 51 % 58 % 1018,6 hPa 0,0 l/m 2,3 km/h NW 315 0 min 7,3 C 15,5 C 3,1 km/h
13.06.2018 20:15 22,4 C 15,8 C 51 % 59 % 1018,6 hPa 0,0 l/m 1,9 km/h N-NW 337 0 min 7,8 C 15,8 C 4,8 km/h
13.06.2018 20:10 22,4 C 15,8 C 51 % 59 % 1018,6 hPa 0,0 l/m 2,1 km/h O-SO 112 0 min 7,8 C 15,8 C 2,9 km/h
13.06.2018 20:08 22,4 C 15,8 C 51 % 59 % 1018,6 hPa 0,0 l/m 2,1 km/h O-SO 112 0 min 7,8 C 15,8 C 2,9 km/h
13.06.2018 20:03 22,4 C 15,8 C 51 % 59 % 1018,6 hPa 0,0 l/m 1,9 km/h W-NW 292 0 min 7,8 C 15,8 C 3,5 km/h
13.06.2018 19:58 22,4 C 15,8 C 51 % 59 % 1018,4 hPa 0,0 l/m 1,8 km/h W-NW 292 0 min 7,8 C 15,8 C 3,2 km/h
13.06.2018 19:53 22,2 C 15,8 C 51 % 58 % 1018,4 hPa 0,0 l/m 2,4 km/h W-SW 247 0 min 7,6 C 15,8 C 0,0 km/h
13.06.2018 19:50 22,3 C 15,9 C 51 % 59 % 1018,4 hPa 0,0 l/m 2,9 km/h W-SW 247 0 min 7,9 C 15,9 C 6,6 km/h
13.06.2018 19:45 22,2 C 15,8 C 51 % 58 % 1018,4 hPa 0,0 l/m 2,9 km/h W 270 0 min 7,6 C 15,8 C 2,1 km/h
13.06.2018 19:40 22,2 C 15,7 C 51 % 58 % 1018,2 hPa 0,0 l/m 2,9 km/h W 270 0 min 7,5 C 15,7 C 3,9 km/h
13.06.2018 19:35 22,2 C 15,8 C 51 % 58 % 1018,2 hPa 0,0 l/m 2,9 km/h W 270 0 min 7,6 C 15,8 C 4,3 km/h
13.06.2018 19:30 22,2 C 15,8 C 51 % 58 % 1018,2 hPa 0,0 l/m 1,9 km/h N-NO 22 0 min 7,6 C 15,8 C 0,0 km/h
13.06.2018 19:25 22,2 C 15,9 C 50 % 58 % 1018,2 hPa 0,0 l/m 2,1 km/h N-NW 337 0 min 7,6 C 15,9 C 3,5 km/h
13.06.2018 19:20 22,2 C 15,8 C 50 % 58 % 1018,2 hPa 0,0 l/m 2,9 km/h N-NO 22 0 min 7,6 C 15,8 C 1,8 km/h
13.06.2018 19:15 22,2 C 15,8 C 51 % 58 % 1018,2 hPa 0,0 l/m 2,7 km/h W-NW 292 0 min 7,6 C 15,8 C 4,0 km/h
13.06.2018 19:10 22,1 C 15,8 C 51 % 58 % 1018,2 hPa 0,0 l/m 3,4 km/h W-SW 247 0 min 7,6 C 15,8 C 4,5 km/h
13.06.2018 19:05 22,0 C 15,8 C 51 % 58 % 1018,2 hPa 0,0 l/m 2,6 km/h W 270 0 min 7,6 C 15,8 C 3,2 km/h
13.06.2018 19:00 22,0 C 15,8 C 51 % 58 % 1017,8 hPa 0,0 l/m 3,1 km/h NW 315 0 min 7,6 C 15,8 C 4,0 km/h
13.06.2018 18:55 22,0 C 15,9 C 51 % 58 % 1017,8 hPa 0,0 l/m 4,5 km/h NW 315 0 min 7,6 C 15,9 C 2,3 km/h
13.06.2018 18:50 21,9 C 15,9 C 51 % 58 % 1017,8 hPa 0,0 l/m 4,3 km/h W-SW 247 0 min 7,6 C 15,9 C 9,0 km/h
13.06.2018 18:45 21,8 C 15,9 C 51 % 58 % 1017,8 hPa 0,0 l/m 4,2 km/h W 270 0 min 7,6 C 15,9 C 5,1 km/h
_ Min-Zeit 18:25 06:30 13:55 13:35 05:20 - 22:00 - - - 21:30 06:30 20:40
Minimum _ 21,5 C 13,1 C 47 % 49 % 1015,2 hPa - 0,3 km/h - - - 6,4 C 13,1 C 0,0 km/h
_ Max-Zeit 22:10 12:35 05:00 06:20 21:55 21:55 12:35 - - 16:25 08:30 12:35 12:30
Maximum _ 23,2 C 18,4 C 54 % 69 % 1019,9 hPa 0,0 l/m 8,0 km/h
N-NW
- - 5 min 8,3 C 18,4 C 19,0 km/h
W-SW
Durchschnitt _ 22,2 C 15,6 C 51 % 59 % 1016,4 hPa #0,0 l/m 3,5 km/h NW - #4:13 h 7,6 C 15,6 C 4,7 km/h